Regional Weather Roundup
Issued by NWS

Home | Current Version | Previous Version | Text Only | Print | Product List | Glossary On
Versions: 1 2 3 4 5 6 7 8 9 10 11 12 13 14 15 16 17 18 19 20 21 22 23 24 25 26 27 28
000
ASUS44 KJAN 241610
RWRMS

MISSISSIPPI HOURLY WEATHER ROUNDUP
NATIONAL WEATHER SERVICE JACKSON MS
1000 AM CST TUE JAN 24 2017

NOTE: "FAIR: INDICATES FEW OR NO CLOUDS BELOW 12,000 FEET WITH NO
SIGNIFICANT WEATHER AND/OR OBSTRUCTIONS TO VISIBILITY.

MSZ001>002-007>008-010>013-018>021-025>028-034>036-241700-
NORTHWEST MISSISSIPPI

CITY           SKY/WX    TMP DP  RH WIND       PRES   REMARKS
BATESVILLE     FAIR      48  43  83 CALM      29.94S
CLARKSDALE     SUNNY     50  46  87 SE7       29.94R
CLEVELAND      FAIR      51  46  84 S9        29.94R
GREENWOOD      SUNNY     53  42  66 S6        29.94R
GREENVILLE     SUNNY     51  43  74 SE12      29.93R
OLIVE BRANCH   SUNNY    N/A N/A N/A SE10      29.92R
OXFORD         FAIR      48  41  76 SE7       29.94F
TUNICA         SUNNY     45  43  93 SE5       29.95R
WINONA         FAIR      49  42  77 CALM      29.94R
$$

MSZ003>006-009-014>017-022>024-029>033-037>039-241700-
NORTHEAST MISSISSIPPI

CITY           SKY/WX    TMP DP  RH WIND       PRES   REMARKS
COLUMBUS AFB   SUNNY     50  41  71 CALM      29.98R
CORINTH        FAIR      45  37  76 VRB5      29.95S
GOLDN TRIANGLE SUNNY     48  37  66 CALM      29.94R
STARKVILLE     FAIR      48  41  76 CALM      29.97S
TUPELO         SUNNY     48  37  65 NE6       29.95F
$$

MSZ040-058-241700-
CENTRAL MISSISSIPPI

CITY           SKY/WX    TMP DP  RH WIND       PRES   REMARKS
JACKSON INTL   SUNNY     54  42  64 SE5       29.95R
JACKSON HAWKNS SUNNY     53  42  66 SE9       29.95R
MADISON        FAIR     N/A N/A N/A SE5       29.95R
MERIDIAN KEY   SUNNY     52  43  71 CALM      29.98R
MERIDIAN NAS   SUNNY     51  39  63 E3        29.99R
RAYMOND        FAIR      54  45  71 SE7       29.94S
VICKSBURG VKS  SUNNY     55  43  62 SE8       29.91R
$$

MSZ059>079-241700-
SOUTH MISSISSIPPI

CITY           SKY/WX    TMP DP  RH WIND       PRES   REMARKS
BROOKHAVEN     FAIR      54  48  82 CALM      29.97R
HATTIESBURG    SUNNY     53  40  61 E8        29.99S
LAUREL         FAIR      51  42  70 E3        29.99R
MCCOMB         SUNNY     55  43  63 SE7       29.95S
NATCHEZ        SUNNY     57  43  58 SE8       29.93R
PINE BELT      SUNNY     52  41  66 E7        30.00R
$$

MSZ080>082-241700-
COASTAL MISSISSIPPI

CITY           SKY/WX    TMP DP  RH WIND       PRES   REMARKS
BAY ST LOUIS   SUNNY     55  39  54 E5        29.99R
BILOXI         SUNNY     55  43  63 NE6       29.98R
PASCAGOULA     SUNNY     56  39  53 N8        29.99R
GULFPORT       SUNNY     57  43  59 NE5       29.98R
$$

LAZ007>009-015>016-023>026-241700-
NORTHEAST LOUISIANA

CITY           SKY/WX    TMP DP  RH WIND       PRES   REMARKS
BASTROP        FAIR      54  48  80 E6        29.92R
TALLULAH/VBURG SUNNY     54  44  69 E8        29.93S
VIDALIA        FAIR      56  45  68 SE8       29.96S
$$




USA.gov is the U.S. government's official web portal to all federal, state and local government web resources and services.